[[{"header":{"parameterUnit":"m.s-1","parameterCategory":1,"la1":30.2991,"la2":30.254,"lo1":-89.0895,"lo2":-89.0444,"dy":0.0017,"dx":0.0017,"nx":28,"ny":28,"refTime":"2025-07-16T03:00:00:Z","depth":0,"parameterNumber":2,"parameterNumberName":"U-component_of_WINDS"},"data":[0,0,0,0,0,0,0,0,0,0,0,0,0,0,0,0,0,0,0,0,0,0,0,0,0,0,0,0,0,0,0,0,0,0,0,0,0,0,0,0,0,0,0,0,0,0,0,0,0,0,0,0,0,0,0,0,0,0,2.2623,2.2625,0,2.2792,2.2794,2.2795,2.2778,2.2776,2.2773,2.2771,2.295,2.2957,2.2965,0,0,0,0,0,0,0,0,0,0,0,0,0,2.2292,2.2298,2.2623,2.2625,2.2627,2.2791,2.2794,2.2796,2.2779,2.2776,2.2772,2.2769,2.2948,2.2956,2.2965,0,0,0,0,0,0,0,0,0,0,0,0,0,2.2446,2.23,2.2622,2.2638,2.2641,2.2791,2.2794,2.2797,2.278,2.2776,2.2772,2.2768,2.2945,2.2956,2.2966,2.3113,0,0,2.3,2.3004,0,0,0,0,0,0,0,0,2.2437,2.2458,2.2634,2.2637,2.2641,2.276,2.2743,2.2903,2.2781,2.2727,2.2771,2.2766,2.2891,2.2906,2.2946,2.3122,2.3129,2.3001,2.3007,2.3012,2.3015,0,0,0,0,0,0,0,2.2426,2.2451,2.269,2.2636,2.2641,2.2639,2.2656,2.2773,2.2829,2.2732,2.2731,2.2751,2.2892,2.2936,2.295,2.3132,2.3,2.301,2.3017,2.3021,2.3438,2.3442,0,0,0,0,0,0,2.2411,2.2442,2.2684,2.2695,2.2527,2.2648,2.2667,2.2726,2.2828,2.284,2.2754,2.2749,2.2919,2.2938,2.2957,2.3136,2.3012,2.3022,2.3028,2.3433,2.3439,2.3444,0,0,0,0,0,0,2.2404,2.2433,2.2677,2.2568,2.2599,2.2658,2.2723,2.2731,2.2775,2.2845,2.2855,2.2788,2.2917,2.2941,2.3074,2.3142,2.3027,2.3037,2.3428,2.3435,2.3441,2.3495,0,0,0,0,0,0,2.2395,2.243,2.2485,2.2569,2.2605,2.279,2.2728,2.2737,2.2793,2.2789,2.288,2.2891,2.2916,2.3058,2.3085,2.3155,2.3045,2.3422,2.3431,2.3439,2.3487,2.3503,2.3516,0,0,0,0,0,2.2383,2.2495,2.2488,2.2517,2.2674,2.2794,2.2815,2.2839,2.2799,2.2855,2.29,2.2888,2.313,2.3072,2.3102,2.3176,2.3418,2.3428,2.3438,2.3481,2.35,2.3515,0,0,0,0,0,0,2.2419,2.2506,2.25,2.2642,2.271,2.2791,2.2863,2.2858,2.2941,2.2934,2.2962,2.2983,2.3117,2.316,2.3094,2.3324,2.3269,2.3286,2.3291,2.3309,2.3323,2.331,2.3054,0,0,0,0,0,2.2443,2.2531,2.2603,2.2722,2.2757,2.2804,2.2857,2.287,2.2943,2.2973,2.3027,2.3101,2.3193,2.3254,2.3343,2.3493,2.3514,2.3559,2.3574,2.3585,2.3599,2.3683,2.3704,2.3477,2.3477,2.3477,0,0,2.2495,2.2553,2.2608,2.2731,2.2786,2.2878,2.2829,2.2929,2.2998,2.2989,2.3117,2.3159,2.3243,2.3386,2.3452,2.3426,2.3667,2.3598,2.3606,2.3615,2.3696,2.3717,2.3736,2.3484,2.3483,2.3482,0,0,2.2636,2.2689,2.2794,2.2849,2.2932,2.2963,2.2988,2.307,2.3097,2.3225,2.322,2.3305,2.3463,2.3523,2.3575,2.3739,2.3732,2.3768,2.3842,2.3923,2.3941,2.3957,2.4017,2.4038,2.3782,2.3782,2.3782,0,2.2691,2.2827,2.2849,2.2949,2.3004,2.2998,2.3105,2.3159,2.3268,2.3307,2.3276,2.3475,2.3531,2.3688,2.3728,2.3769,2.38,2.3757,2.3937,2.3953,2.3968,2.4025,2.4047,2.3786,2.3785,2.3785,2.3784,0,2.2891,2.2986,2.3061,2.3164,2.3227,2.3331,2.337,2.3432,2.3439,2.3474,2.3606,2.3673,2.3776,2.3814,2.3823,2.3973,2.3954,2.393,2.3875,2.3993,2.4047,2.4069,2.3791,2.379,2.3789,2.3788,0,0,2.306,2.3172,2.32,2.3246,2.3337,2.3413,2.3517,2.3615,2.3668,2.3744,2.3833,2.3967,2.3945,2.4004,2.4019,2.4091,2.4217,2.4058,2.406,2.4086,2.4388,2.4405,2.443,2.4213,2.4217,2.422,2.4381,0,2.321,2.3392,2.3414,2.3577,2.3666,2.3661,2.3753,2.3819,2.3855,2.3937,2.3977,2.4072,2.4035,2.4071,2.4141,2.4187,2.4279,2.4176,2.4298,2.4302,2.4276,2.4458,2.4477,2.4625,2.4402,2.4405,2.4408,0,2.341,2.3489,2.366,2.3738,2.3777,2.3858,2.395,2.4028,2.4105,2.4126,2.4191,2.4197,2.4307,2.4247,2.44,2.4329,2.4381,2.4411,2.4418,2.443,2.4362,2.4476,2.4673,2.4695,2.4441,2.4439,2.4436,0,2.3516,2.3666,2.3787,2.3827,2.3923,2.398,2.4023,2.4095,2.4153,2.4234,2.4272,2.4366,2.4418,2.4491,2.4524,2.4477,2.4675,2.4618,2.4697,2.4696,2.4739,2.4735,2.4946,2.4771,2.4771,2.4771,2.477,0,2.3682,2.3787,2.3836,2.3911,2.4029,2.4055,2.4171,2.4212,2.4277,2.4361,2.4364,2.4443,2.4481,2.4567,2.4593,2.4716,2.474,2.4761,2.4767,2.4761,2.4758,2.4795,2.4785,2.4777,2.4775,2.4774,2.4773,0,2.3821,2.3858,2.399,2.4069,2.4091,2.4175,2.4243,2.4317,2.4351,2.4458,2.4485,2.454,2.4641,2.468,2.4805,2.4823,2.4964,2.4962,2.4938,2.4939,2.5016,2.5008,2.5258,2.5293,2.5095,2.5097,2.5098,0,2.3924,2.4005,2.4092,2.4147,2.4191,2.4281,2.434,2.4369,2.443,2.4523,2.4586,2.4686,2.4768,2.493,2.4983,2.5078,2.5078,2.5159,2.5093,2.5084,2.508,2.5074,2.5083,2.5172,2.5174,2.5175,2.5177,0,2.4104,2.4118,2.4201,2.4292,2.4361,2.4434,2.4505,2.4551,2.4591,2.466,2.4762,2.4825,2.4951,2.5052,2.515,2.5196,2.5194,2.5197,2.522,2.5215,2.5198,2.5208,2.4971,2.5191,2.519,2.5189,2.5188,2.5187,2.4229,2.43,2.4372,2.4465,2.4521,2.4588,2.466,2.4703,2.4788,2.4892,2.4905,2.5015,2.509,2.5221,2.5272,2.5359,2.5338,2.5372,2.5381,2.5389,2.5394,2.5183,2.5377,2.5377,2.5377,2.5376,2.5376,0,2.4409,2.4455,2.454,2.4638,2.4712,2.4701,2.4779,2.4842,2.4938,2.5008,2.5088,2.5206,2.5303,2.5363,2.5461,2.552,2.5521,2.5545,2.5541,2.5551,2.5407,2.5377,2.5542,2.5542,2.5541,2.5541,2.5541,2.5541,2.4511,2.4631,2.4654,2.4802,2.4849,2.4955,2.5,2.5062,2.5118,2.5248,2.5328,2.5366,2.5432,2.5535,2.5624,2.564,2.5676,2.5701,2.5715,2.5579,2.5562,2.5545,2.5517,2.5708,2.5709,2.5852,2.5853,2.5854]},{"header":{"parameterUnit":"m.s-1","parameterCategory":1,"la1":30.2991,"la2":30.254,"lo1":-89.0895,"lo2":-89.0444,"dy":0.0017,"dx":0.0017,"nx":28,"ny":28,"refTime":"2025-07-16T03:00:00:Z","depth":0,"parameterNumber":3,"parameterNumberName":"V-component_of_WINDS"},"data":[0,0,0,0,0,0,0,0,0,0,0,0,0,0,0,0,0,0,0,0,0,0,0,0,0,0,0,0,0,0,0,0,0,0,0,0,0,0,0,0,0,0,0,0,0,0,0,0,0,0,0,0,0,0,0,0,0,0,1.6565,1.6566,0,1.6631,1.6632,1.6632,1.6593,1.6592,1.659,1.6588,1.6655,1.6659,1.6662,0,0,0,0,0,0,0,0,0,0,0,0,0,1.6401,1.6404,1.6565,1.6566,1.6566,1.6631,1.6632,1.6633,1.6594,1.6592,1.6589,1.6587,1.6654,1.6658,1.6662,0,0,0,0,0,0,0,0,0,0,0,0,0,1.647,1.6405,1.6565,1.6555,1.6555,1.6631,1.6632,1.6633,1.6594,1.6591,1.6589,1.6586,1.6653,1.6658,1.6663,1.6752,0,0,1.6679,1.6681,0,0,0,0,0,0,0,0,1.6466,1.6476,1.6555,1.6556,1.6556,1.6601,1.6599,1.6673,1.6595,1.6579,1.6588,1.6585,1.6639,1.6646,1.6664,1.6755,1.6758,1.668,1.6683,1.6685,1.6687,0,0,0,0,0,0,0,1.6462,1.6473,1.6591,1.6557,1.6557,1.6546,1.6553,1.6612,1.6624,1.658,1.6578,1.6586,1.6639,1.6659,1.6665,1.6759,1.668,1.6684,1.6688,1.669,1.6921,1.6923,0,0,0,0,0,0,1.6458,1.6469,1.6589,1.6593,1.6503,1.6551,1.6559,1.6589,1.6624,1.6626,1.6588,1.6584,1.6651,1.6659,1.6668,1.677,1.6685,1.669,1.6693,1.6918,1.6921,1.6924,0,0,0,0,0,0,1.6454,1.6469,1.6586,1.653,1.6545,1.6557,1.6592,1.6592,1.6612,1.663,1.6631,1.6607,1.665,1.666,1.673,1.6772,1.6692,1.6697,1.6914,1.6919,1.6923,1.6978,0,0,0,0,0,0,1.645,1.6468,1.6503,1.6532,1.6548,1.6649,1.6594,1.6595,1.6622,1.6617,1.6648,1.665,1.6648,1.6722,1.6735,1.6778,1.6701,1.691,1.6916,1.6921,1.6972,1.6984,1.6993,0,0,0,0,0,1.6444,1.6517,1.6505,1.652,1.6592,1.6652,1.6661,1.6657,1.6625,1.666,1.667,1.6649,1.6766,1.673,1.6744,1.6789,1.6908,1.6915,1.6921,1.6968,1.6981,1.6993,0,0,0,0,0,0,1.6495,1.6521,1.6508,1.6593,1.662,1.6645,1.6688,1.6673,1.671,1.6703,1.6697,1.6704,1.6776,1.679,1.675,1.6874,1.6831,1.6841,1.6862,1.6875,1.6886,1.6879,1.6706,0,0,0,0,0,1.6516,1.6562,1.6583,1.6655,1.667,1.6677,1.6703,1.6697,1.6725,1.6736,1.6752,1.6779,1.6821,1.685,1.689,1.6975,1.6978,1.7012,1.7022,1.7031,1.7039,1.7079,1.7093,1.6946,1.6946,1.6946,0,0,1.656,1.658,1.661,1.6666,1.6686,1.6732,1.6687,1.6739,1.6773,1.6744,1.681,1.6822,1.6852,1.6928,1.6963,1.6942,1.708,1.7039,1.7046,1.7049,1.7087,1.7101,1.7113,1.6951,1.695,1.6949,0,0,1.6662,1.6684,1.6744,1.6765,1.6796,1.6799,1.6814,1.684,1.6846,1.6912,1.689,1.693,1.7004,1.7024,1.7045,1.715,1.7131,1.7164,1.7217,1.7257,1.7268,1.7279,1.7312,1.7324,1.7172,1.7172,1.7172,0,1.6713,1.6783,1.6777,1.683,1.6853,1.6828,1.6887,1.6908,1.695,1.6966,1.6942,1.7031,1.705,1.7128,1.7153,1.7172,1.7185,1.7159,1.7267,1.7277,1.7287,1.7318,1.7331,1.7175,1.7175,1.7175,1.7174,0,1.6841,1.6889,1.6934,1.6973,1.7002,1.7058,1.7059,1.7088,1.7079,1.7084,1.7149,1.717,1.7212,1.723,1.7224,1.7306,1.7292,1.7268,1.7225,1.7304,1.7333,1.7346,1.718,1.7179,1.7178,1.7177,0,0,1.6979,1.7011,1.7027,1.7042,1.7073,1.7109,1.7162,1.7202,1.7225,1.7255,1.7296,1.7358,1.7334,1.7357,1.7352,1.7387,1.7463,1.7358,1.7359,1.7373,1.755,1.7565,1.7579,1.7451,1.7454,1.7456,1.7546,0,1.7079,1.7171,1.7166,1.7251,1.7293,1.7268,1.7313,1.7336,1.7341,1.7376,1.7383,1.7424,1.7393,1.7405,1.7439,1.7447,1.7498,1.7441,1.7487,1.7489,1.7477,1.7595,1.7612,1.7697,1.7558,1.756,1.7561,0,1.721,1.7241,1.733,1.7349,1.7366,1.7407,1.744,1.7476,1.7499,1.75,1.7523,1.7511,1.7561,1.7519,1.7586,1.7547,1.7565,1.7572,1.7575,1.7576,1.7528,1.7596,1.7724,1.7735,1.758,1.7579,1.7577,0,1.7295,1.736,1.742,1.7435,1.746,1.7488,1.75,1.752,1.7543,1.7572,1.7586,1.7621,1.764,1.7666,1.7662,1.7632,1.7729,1.7687,1.7729,1.7729,1.7748,1.7747,1.7877,1.7767,1.7766,1.7766,1.7766,0,1.7407,1.7461,1.7458,1.7495,1.7553,1.7546,1.7604,1.7612,1.763,1.7666,1.7648,1.7682,1.7677,1.771,1.7708,1.7761,1.7771,1.7771,1.7769,1.7771,1.777,1.7781,1.7774,1.7769,1.7769,1.7768,1.7767,0,1.7512,1.7513,1.7575,1.7592,1.7598,1.764,1.7654,1.7687,1.769,1.7736,1.7746,1.7751,1.7789,1.7788,1.7832,1.783,1.7894,1.7888,1.7886,1.7883,1.7923,1.7918,1.8062,1.8079,1.7961,1.7962,1.7963,0,1.7581,1.7622,1.7642,1.7664,1.7677,1.7714,1.7736,1.7729,1.7752,1.7779,1.7808,1.7845,1.7873,1.7935,1.7941,1.7973,1.7965,1.8013,1.797,1.7968,1.796,1.7956,1.7958,1.8021,1.8022,1.8023,1.8024,0,1.7703,1.7699,1.7732,1.7762,1.7788,1.7813,1.7836,1.7855,1.785,1.7877,1.7914,1.7936,1.7979,1.8014,1.8044,1.8055,1.8037,1.8038,1.8048,1.8049,1.8044,1.8043,1.7905,1.8034,1.8033,1.8032,1.8032,1.8031,1.7789,1.7821,1.7839,1.7874,1.789,1.791,1.794,1.7946,1.7977,1.8011,1.8005,1.8046,1.8064,1.8103,1.8116,1.8147,1.813,1.8146,1.815,1.8153,1.8155,1.8042,1.8153,1.8153,1.8153,1.8152,1.8152,0,1.7905,1.7914,1.7947,1.7977,1.8003,1.7985,1.8007,1.803,1.8066,1.8085,1.8112,1.8153,1.8186,1.8194,1.8224,1.8247,1.824,1.8255,1.8252,1.8253,1.8171,1.8157,1.826,1.826,1.826,1.826,1.826,1.826,1.7969,1.8021,1.802,1.8078,1.8087,1.8127,1.814,1.8158,1.8172,1.8218,1.8244,1.8249,1.8262,1.8293,1.8321,1.8322,1.8333,1.835,1.8348,1.8271,1.826,1.8249,1.8236,1.8354,1.8354,1.8427,1.8428,1.8428]}]]